RH
60 66 72 77 73 71 68 60 56 58 68 74 69 72 86 97 101 100 96 83 65 49 44 43 43 45 48 52 55 57 61 64 67 68 74 80 79 79 78 78 75 71 69 68 68 70 73 76 78 78 77 72
63 61 60 61 59 56 53 47 45 49 50 45 40 43 53 67 73 69 58 50 47 45 49 51 57 66 65 66 69 68 68 63 60 57 61 67 67 68 67 68 67 66 69 70 71 69 67 67 68 71 73 71
81 81 73 67 67 62 57 51 45 47 49 42 42 47 46 47 50 50 45 45 53 61 71 75 78 90 90 88 87 83 81 77 77 78 79 81 78 78 80 81 80 79 82 84 86 84 81 82 85 88 90 90
92 98 96 85 85 85 82 77 64 54 54 58 65 73 75 69 69 74 71 69 74 81 92 94 87 90 95 98 99 97 94 91 95 98 99 101 98 99 98 90 82 80 84 88 90 91 93 96 98 100 100 98
98 99 100 92 91 95 96 97 92 82 76 81 88 93 96 90 91 98 97 95 97 99 102 101 94 89 86 88 93 98 101 100 103 102 101 103 101 101 100 90 83 80 82 84 84 85 86 87 88 87 84 80
101 101 100 94 88 83 81 85 86 84 84 90 98 104 104 95 95 101 101 98 98 100 102 103 103 101 96 91 89 92 97 101 105 106 104 104 103 101 100 97 94 90 88 84 80 77 74 72 71 68 64 61
100 102 104 101 92 77 65 66 68 67 68 69 75 85 93 96 100 105 105 100 94 93 94 97 101 103 104 101 99 97 97 99 101 103 101 102 102 100 98 95 92 86 81 75 71 68 65 64 62 60 57 55
102 102 105 106 100 89 75 67 68 71 72 68 66 64 67 74 85 98 103 99 93 91 91 94 99 102 104 103 103 102 101 102 100 100 100 99 95 91 88 84 80 76 71 67 65 63 61 61 60 59 55 53
101 100 101 105 100 97 94 90 89 91 91 90 88 83 73 65 67 76 83 79 71 69 70 74 80 88 96 102 104 102 103 105 102 102 102 98 93 88 84 80 78 74 70 67 64 62 61 61 60 56 53 50
103 101 100 103 100 98 98 98 99 101 102 102 101 100 94 86 79 76 76 74 66 60 57 58 61 68 79 92 101 104 105 103 102 103 101 99 95 91 88 85 81 76 70 65 63 63 62 59 55 51 47 45
100 105 103 101 101 103 104 100 95 94 95 97 97 98 99 101 99 96 94 93 90 85 80 74 70 70 73 81 91 99 102 100 99 99 97 96 94 92 88 83 77 72 68 65 64 62 59 53 49 46 42 40
96 103 103 100 99 101 104 103 100 97 96 94 94 94 94 96 96 98 101 102 102 101 99 95 91 89 86 88 92 94 94 93 91 90 88 86 84 82 80 76 73 71 69 66 61 57 52 47 44 41 38 36
93 96 97 99 98 99 99 98 100 100 100 100 100 98 96 95 91 92 94 95 97 97 96 95 95 94 93 93 93 91 88 87 86 83 81 78 76 75 72 71 70 67 65 62 57 53 50 46 42 39 36 34
77 82 87 90 88 91 90 87 89 88 88 93 93 91 92 92 91 92 91 90 91 90 88 87 85 84 82 80 78 79 77 76 76 75 74 73 72 70 68 66 65 63 60 57 55 51 48 45 42 39 36 34
66 70 75 76 74 77 76 72 75 73 71 75 76 74 75 76 78 82 84 85 86 84 82 79 75 71 68 66 63 62 61 61 62 61 63 63 62 62 61 59 58 57 55 52 50 48 46 43 40 38 35 33
66 68 69 68 66 67 65 63 64 63 61 62 64 66 68 68 69 70 70 73 74 73 74 71 66 62 57 56 53 51 51 52 52 53 54 54 54 54 54 53 52 51 50 48 47 45 43 41 38 36 34 32
61 64 65 64 63 63 61 60 60 60 60 61 61 63 66 67 67 66 64 64 64 63 64 61 57 54 49 47 47 46 48 49 49 50 50 50 51 51 50 49 49 48 47 45 44 42 40 38 36 34 33 31
56 58 60 59 59 60 59 58 59 60 60 61 61 62 63 63 64 64 63 62 60 57 56 54 52 50 46 43 43 43 46 48 50 51 51 52 51 50 50 48 47 46 45 44 42 40 38 37 35 34 32 31
53 55 56 56 55 55 54 54 55 56 58 60 60 61 62 63 64 64 65 63 61 58 55 53 51 49 46 43 41 42 43 44 47 50 52 53 53 52 51 49 48 47 45 43 41 39 38 37 35 34 32 31
49 51 52 52 50 49 48 48 50 52 54 57 58 60 61 62 63 63 64 63 61 60 57 55 53 51 49 47 46 46 46 46 46 48 50 52 53 53 52 51 49 47 46 44 42 40 38 37 35 34 33 33
43 47 49 49 47 46 45 46 47 49 51 53 55 57 58 58 59 59 61 63 65 66 66 64 61 58 56 56 55 55 55 55 54 54 54 54 54 54 54 53 51 49 47 45 43 41 39 38 37 36 36 36
36 40 43 44 44 44 45 46 47 49 50 51 52 53 55 55 56 57 60 64 68 72 73 72 70 68 66 64 63 63 63 62 60 59 60 60 60 60 59 57 55 53 50 48 46 44 43 41 41 40 40 39
32 34 36 38 39 41 44 47 49 50 51 51 52 54 55 56 56 57 59 61 63 66 68 69 71 72 72 69 69 69 68 67 64 63 64 65 66 67 67 66 65 62 58 55 52 50 48 46 46 45 44 43
34 34 35 35 36 39 43 48 50 51 52 53 54 55 57 58 57 57 58 58 59 60 62 64 67 69 71 71 72 72 72 73 74 74 74 73 72 71 72 72 72 70 69 67 66 63 60 57 55 53 52 50
37 36 36 36 36 37 41 45 49 51 53 55 55 56 58 59 59 59 60 60 61 63 63 64 65 66 67 69 71 72 73 77 81 85 86 86 83 79 76 74 73 73 74 75 76 75 74 71 69 68 66 65
39 38 37 38 38 39 40 43 45 49 51 54 55 56 57 58 59 59 61 63 64 65 66 67 67 67 66 66 67 68 69 72 77 83 87 89 89 87 85 83 80 78 77 77 77 77 78 78 77 77 77 76
46 46 44 45 44 43 43 43 43 46 48 50 51 51 52 53 54 54 56 58 60 62 64 65 66 66 66 66 65 65 65 67 70 73 76 79 81 83 85 85 85 84 82 81 79 78 78 78 77 77 76 77
54 55 54 53 52 50 49 47 45 45 44 45 44 44 44 44 45 46 48 50 52 54 56 58 60 62 64 64 64 64 64 65 66 67 68 70 71 72 74 75 77 78 78 79 78 77 77 76 75 74 73 73
63 61 58 56 53 50 49 47 45 44 41 39 38 37 37 37 38 39 41 42 44 46 47 50 52 55 57 58 59 60 60 61 62 63 63 64 64 63 64 63 64 65 65 66 67 67 67 67 67 67 68 67
70 65 58 54 49 45 44 42 41 41 39 38 37 36 35 35 35 36 36 37 38 39 40 43 45 46 47 48 49 50 51 52 53 53 54 54 54 54 53 53 52 52 52 51 51 52 52 52 52 52 54 53
81 73 63 57 50 45 43 43 44 43 42 42 40 39 38 38 37 36 36 36 36 36 37 38 39 39 39 39 40 40 40 40 40 41 41 41 41 41 41 41 40 40 40 39 38 39 39 39 39 39 39 38
Wind_Speed
86 86 85 84 83 83 83 83 82 82 82 82 81 79 79 80 80 81 81 81 82 82 81 80 78 75 73 72 72 72 71 72 72 71 72 72 72 73 73 73 73 72 72 72 73 73 73 73 73 74 76 77
86 86 86 86 85 84 84 84 83 83 83 83 83 83 83 83 84 85 84 84 84 84 83 81 79 75 73 72 72 73 72 72 72 72 73 73 74 74 74 74 75 75 75 76 76 77 76 76 77 78 79 81
87 85 85 85 84 84 85 85 85 84 84 84 84 85 85 85 86 87 88 87 86 85 83 81 79 76 74 73 73 74 74 74 75 75 75 76 76 76 77 78 78 78 78 79 81 81 80 80 81 82 83 84
87 86 85 85 83 82 83 84 85 85 85 86 85 85 86 85 85 86 89 89 88 87 85 83 80 78 77 76 75 75 75 75 76 77 78 78 79 79 80 81 81 81 81 82 83 83 83 83 84 86 87 88
89 88 88 89 88 86 85 85 85 86 87 87 87 87 87 87 86 86 88 88 88 87 86 85 83 82 82 81 79 79 79 78 78 79 79 80 81 82 82 83 83 83 84 85 86 87 87 88 90 92 94 95
94 94 94 94 95 93 92 91 91 91 91 91 91 91 90 90 91 92 92 92 90 89 88 88 87 86 85 85 84 83 84 84 84 84 84 84 85 86 87 87 88 89 90 91 92 93 94 95 97 98 100 100
100 99 99 98 99 98 96 96 96 96 97 97 97 96 95 94 94 96 97 97 96 95 94 93 92 91 90 90 89 88 88 89 89 89 89 90 91 92 93 94 95 96 97 97 98 98 99 99 100 102 103 104
102 102 101 100 99 98 98 98 99 99 100 100 101 101 100 99 99 100 101 101 100 100 99 98 97 96 96 96 95 94 94 95 94 94 95 96 96 97 98 99 100 101 101 102 102 102 102 103 104 105 107 108
100 101 102 102 101 100 99 99 100 101 101 102 103 103 104 104 103 103 105 105 105 104 104 103 103 102 101 100 100 99 99 99 99 99 100 100 101 102 102 103 103 104 104 105 105 106 107 107 108 109 111 111
101 100 100 102 102 101 101 102 102 102 103 103 102 102 103 104 105 105 106 107 108 108 107 107 107 106 105 104 103 103 103 103 103 103 103 104 104 105 105 105 106 107 108 108 109 110 110 111 111 111 112 112
108 104 101 101 101 101 102 104 104 105 105 106 105 105 105 105 105 106 106 107 108 108 109 109 109 108 108 108 107 107 107 107 107 107 107 107 108 108 108 109 110 111 111 112 112 113 113 113 112 112 112 112
112 110 107 105 104 105 106 106 106 107 108 108 109 109 109 109 109 108 108 108 109 109 109 109 109 110 110 110 110 110 110 110 111 111 111 111 112 112 112 113 113 114 114 114 115 114 114 114 113 113 112 112
114 113 112 111 111 112 112 112 111 111 111 111 111 112 112 112 112 112 112 112 112 112 112 112 112 112 113 113 113 113 113 113 114 114 114 115 115 116 116 116 116 116 116 116 116 116 115 115 115 114 114 114
116 115 115 116 116 117 117 117 117 116 116 115 115 114 115 115 115 115 116 116 116 116 116 116 116 116 116 116 116 116 116 116 117 117 117 117 118 118 118 118 118 118 118 118 118 118 118 117 117 117 116 116
119 118 119 119 119 119 120 119 119 119 120 119 118 117 117 117 117 117 118 118 118 119 118 118 118 118 118 118 118 118 118 118 118 118 118 118 119 119 119 119 119 119 119 119 119 119 119 118 118 118 118 118
122 122 122 122 121 121 121 121 120 120 121 121 121 120 119 119 118 118 118 119 120 120 120 119 119 119 119 119 118 118 118 119 119 119 119 119 119 119 119 119 119 118 118 118 119 119 119 118 118 118 118 118
123 123 124 124 124 123 123 122 121 121 121 122 122 122 122 121 121 120 120 120 120 120 120 120 120 120 119 119 118 118 118 118 119 119 119 119 119 119 118 118 118 118 118 118 118 118 118 118 118 117 118 118
122 122 123 124 125 125 125 124 123 122 122 122 122 122 122 123 123 122 122 122 121 121 121 121 121 120 120 119 118 117 117 117 117 118 118 118 118 118 118 118 118 118 117 117 117 117 118 118 118 118 118 118
122 122 122 122 123 124 124 124 123 122 122 121 121 120 120 120 121 121 122 122 122 122 122 121 121 121 121 120 119 118 118 118 117 117 117 116 116 116 116 116 116 117 117 117 116 117 117 118 119 119 119 119
123 122 121 121 122 122 122 122 121 121 121 120 119 119 118 118 119 119 119 120 120 120 120 121 121 121 121 121 120 119 118 118 118 118 117 117 117 116 116 116 116 116 117 117 117 117 118 118 119 119 120 120
124 122 121 120 121 121 121 121 120 120 120 120 119 119 118 118 118 117 117 116 116 116 117 118 119 119 119 119 119 118 117 117 117 117 117 117 117 116 116 116 116 116 117 117 117 118 118 119 120 120 120 121
125 123 122 121 120 120 120 119 119 119 119 119 119 118 118 117 117 116 115 114 115 115 116 117 117 118 119 119 119 118 118 118 117 117 117 117 117 116 116 116 116 117 117 118 118 119 120 120 121 121 122 122
126 125 123 122 121 120 120 119 119 119 119 118 118 117 117 117 117 116 116 116 117 117 118 118 118 119 119 119 119 119 120 120 119 119 118 118 118 118 118 118 118 118 119 119 120 121 121 122 122 123 124 124
125 124 124 123 122 122 121 120 120 119 119 118 118 117 117 118 118 118 118 118 119 119 119 120 120 120 121 120 120 121 121 121 120 120 119 119 119 119 120 120 120 121 121 122 122 123 124 124 125 125 126 127
125 125 125 125 124 124 123 122 121 120 119 119 118 118 117 118 118 118 118 119 119 120 120 121 121 122 122 121 122 122 122 122 121 121 121 120 121 121 122 122 122 123 123 124 125 126 126 127 127 128 129 129
126 126 126 125 125 125 124 123 122 121 120 119 118 117 117 117 118 118 118 118 119 119 120 121 121 122 122 122 123 123 123 123 123 123 123 123 123 123 123 124 124 125 126 126 127 128 129 129 129 130 131 132
126 126 126 125 125 124 124 123 122 121 121 120 119 118 117 117 118 118 118 118 119 119 120 120 120 121 122 122 123 124 124 125 125 126 126 126 126 126 126 126 127 128 128 128 129 130 130 131 132 132 133 133
127 127 127 126 125 125 124 123 122 122 121 121 121 120 119 119 120 120 120 119 120 120 120 120 120 121 122 122 123 124 125 125 126 127 127 127 127 127 128 128 129 129 130 131 131 132 132 133 134 135 136 136
129 129 128 128 127 126 125 124 123 123 122 122 122 122 122 122 122 122 122 122 121 121 121 121 121 122 123 123 124 124 125 125 126 126 127 127 128 128 128 129 129 130 131 131 132 133 133 134 135 136 138 138
131 131 130 129 129 128 126 126 125 125 125 124 125 125 125 125 124 124 124 124 123 123 123 123 123 124 124 125 125 125 126 126 126 127 127 127 128 128 129 129 130 130 131 131 132 133 134 135 135 136 138 139
134 134 133 132 131 130 129 128 128 128 128 128 128 128 128 127 127 127 126 126 126 126 125 126 126 127 127 127 127 127 127 128 128 128 128 129 129 129 130 130 130 130 131 131 132 133 134 135 135 136 137 138
Wind_Direction
248 249 249 250 250 251 252 253 254 254 254 255 256 256 257 257 257 259 261 263 264 265 266 265 265 265 264 263 263 264 265 265 266 267 268 268 269 270 271 272 273 274 274 274 275 275 275 275 275 275 276 278
248 248 249 250 251 252 253 254 255 255 254 255 256 257 258 258 259 260 261 262 263 264 264 265 265 264 263 263 264 264 264 265 267 267 267 268 269 270 271 272 273 273 274 275 275 275 276 276 277 277 277 278
247 247 247 249 250 251 253 254 255 255 255 254 255 255 256 258 259 259 260 261 261 261 261 262 263 262 262 262 263 264 265 266 267 267 268 269 270 271 272 273 274 275 275 276 276 277 278 278 278 278 278 278
245 245 246 247 248 249 250 251 252 253 254 253 253 253 254 255 257 257 258 259 259 259 258 259 259 260 260 261 262 263 264 265 265 266 266 267 268 269 270 271 273 274 274 275 276 277 277 278 277 277 278 278
243 244 245 247 248 248 249 249 250 251 251 251 251 251 252 253 254 255 256 257 257 258 258 258 258 259 259 260 261 262 263 264 265 265 266 266 266 266 267 268 270 271 272 273 274 275 276 276 276 277 277 278
243 244 245 247 248 249 249 249 250 251 251 251 251 251 252 252 253 255 257 257 258 258 258 258 258 259 259 260 260 261 262 263 264 265 265 266 266 267 268 269 270 271 272 272 273 274 275 276 276 277 277 278
245 245 246 247 248 249 249 250 250 250 251 252 253 253 253 253 253 255 257 258 259 260 260 260 260 261 261 261 261 261 261 262 263 264 265 265 266 267 268 269 270 271 272 273 274 274 275 276 276 277 278 278
247 247 247 247 248 249 249 250 251 251 251 251 252 253 254 254 254 255 256 257 258 259 260 261 262 262 263 263 263 263 264 264 264 265 266 266 267 268 269 270 271 272 273 274 275 276 276 277 278 278 279 279
247 248 248 248 248 249 249 249 250 251 252 252 252 253 254 254 255 255 256 257 258 259 260 260 261 262 263 263 264 265 265 266 267 267 268 269 269 270 271 272 273 274 274 275 276 277 277 278 278 278 279 279
247 248 249 249 249 249 249 250 250 251 252 253 253 253 254 254 255 256 257 258 259 260 260 261 261 262 262 263 263 264 265 266 267 268 269 269 270 271 272 272 273 274 274 275 276 276 277 277 277 278 278 278
250 249 249 250 250 250 250 250 251 252 253 253 254 254 254 255 255 256 257 258 259 260 260 261 262 262 263 263 264 264 264 265 266 267 267 268 269 270 271 272 272 273 273 274 275 275 276 277 277 277 278 278
251 251 251 251 252 252 252 252 252 253 254 255 255 256 256 256 257 257 258 258 259 260 261 261 262 263 263 264 264 265 265 266 266 267 267 268 268 269 270 270 271 272 273 274 274 275 276 276 277 277 277 277
252 253 254 254 254 255 255 255 255 255 256 256 257 257 257 258 258 259 259 260 261 261 262 262 263 263 264 264 265 266 266 267 267 268 269 269 269 270 270 271 272 272 273 274 274 275 275 276 277 277 277 277
253 254 255 256 256 256 256 257 257 258 259 259 259 259 259 259 259 260 260 261 262 262 263 264 264 265 265 266 266 267 267 268 268 269 269 270 270 271 271 272 272 273 273 274 274 275 275 276 276 276 277 277
254 255 256 256 256 257 257 258 258 260 261 262 262 262 261 261 261 261 261 262 262 263 263 264 265 266 267 267 268 268 268 269 269 269 270 270 271 271 271 272 273 273 274 274 274 275 275 275 275 276 276 276
254 255 257 258 258 258 259 259 259 260 261 262 263 264 264 264 264 264 263 263 263 264 264 264 265 266 267 268 268 269 269 270 270 270 270 271 271 271 272 272 273 273 274 274 274 275 275 275 275 275 275 275
255 255 256 258 259 260 260 261 261 261 262 262 263 264 265 265 265 266 266 265 265 265 265 266 266 267 267 268 269 269 269 270 270 270 270 271 271 272 272 272 273 273 273 273 274 274 274 274 274 274 274 274
257 257 257 257 258 260 261 262 262 263 263 264 264 264 264 265 266 266 266 267 267 267 267 267 267 268 268 269 269 270 270 270 270 270 271 271 271 271 272 272 272 272 273 273 273 273 273 273 273 273 273 272
257 257 258 258 259 259 260 261 262 263 263 264 264 265 265 265 266 266 266 267 267 268 268 268 268 268 269 269 269 269 270 270 270 270 271 271 271 271 271 271 272 272 272 272 272 272 272 272 272 272 271 271
257 257 258 259 259 260 260 260 261 261 262 263 264 264 265 265 266 266 267 267 268 268 268 268 268 268 269 269 269 269 269 269 270 270 270 270 271 271 271 271 271 271 271 271 270 270 270 270 270 270 270 270
256 257 258 258 259 260 260 261 261 261 261 262 263 263 264 265 266 266 267 267 267 267 268 268 268 268 268 269 269 269 269 269 269 270 270 270 270 270 270 270 270 269 269 269 269 269 269 269 269 269 269 269
256 257 257 258 259 260 260 260 261 261 261 262 262 263 263 264 265 265 265 266 266 266 267 267 267 268 268 268 268 269 269 269 269 269 269 269 269 269 269 269 269 268 268 268 268 268 268 268 268 268 269 269
256 257 258 259 260 260 261 261 261 261 262 262 262 263 263 263 264 264 264 264 265 265 266 266 267 267 267 268 268 268 268 268 269 269 269 269 268 268 268 268 268 268 268 267 268 268 268 268 268 268 268 269
257 258 258 259 260 261 261 261 262 262 262 262 262 262 263 263 263 263 264 264 264 265 265 265 266 266 267 267 267 268 268 268 268 268 268 268 267 267 267 267 267 267 267 267 267 267 267 268 268 268 268 269
258 259 259 260 260 261 261 262 262 262 262 262 262 262 262 263 263 263 263 264 264 264 264 264 265 265 266 266 267 267 267 267 267 267 267 267 267 267 267 267 267 268 268 268 268 268 268 268 268 269 269 269
260 260 260 260 260 260 261 261 262 262 263 263 263 263 263 263 263 263 263 263 263 263 264 264 264 265 265 266 266 266 267 267 267 267 266 266 266 266 267 267 267 267 268 268 268 268 269 269 269 269 270 270
262 262 262 262 262 262 262 262 262 262 263 263 263 263 263 263 263 263 263 263 263 263 264 264 264 265 265 266 266 266 266 266 266 266 266 266 266 267 267 267 267 267 267 268 268 269 269 270 270 270 270 271
262 263 263 263 263 263 263 263 263 263 263 264 264 264 264 264 264 264 264 264 264 264 264 264 265 265 266 266 266 266 266 266 266 266 266 267 267 267 267 267 267 267 268 268 268 269 269 270 270 270 271 271
263 263 263 263 264 264 264 264 264 264 265 265 265 265 265 265 265 265 265 265 265 265 265 266 266 266 266 266 266 267 267 267 267 267 267 267 267 267 268 268 268 268 268 269 269 269 269 270 270 270 271 271
264 264 264 265 265 265 265 265 266 266 266 266 266 266 266 266 266 266 266 266 266 266 267 267 267 267 267 267 267 267 267 268 268 268 268 268 268 268 268 268 269 269 269 269 270 270 270 270 270 270 271 271
266 266 266 266 266 266 267 267 267 267 267 267 267 268 268 268 268 268 268 268 268 268 268 268 268 268 268 268 268 268 269 269 269 269 269 269 269 269 269 269 269 269 270 270 270 270 270 270 271 271 271 272